User: anonymous   Login
Location: Unspecified
(0.0000°N, 0.0000°E)
Time: 05:21:41
(UTC+00:00)
Language:

Gonets-D1 - Orbit

View from above orbital plane
View from above orbital plane
View from above satellite
View from above satellite

Ground track
Ground track

The orbit data is extracted from the following two-line orbital elements,

1 23789U 96009C   18146.47799915 +.00000020 +00000-0 +52724-4 0  9990
2 23789 082.5822 039.1835 0003767 258.4990 101.5677 12.62599048026200
Epoch (UTC): 26 May 2018 11:28:19
Eccentricity: 0.0003767
inclination: 82.5822°
perigee height: 1409 km
apogee height: 1415 km
right ascension of ascending node: 39.1835°
argument of perigee: 258.4990°
revolutions per day: 12.62599048
mean anomaly at epoch: 101.5677°
orbit number at epoch: 2620

The dashed part of the orbit path shows where the satellite is in the earth's shadow,  

DLR